Regional Weather Roundup
Issued by NWS

Home | Current Version | Previous Version | Text Only | Print | Product List | Glossary On
Versions: 1 2 3 4 5 6 7 8 9 10 11 12 13 14 15 16 17 18 19 20 21 22 23 24 25 26 27 28 29 30 31 32 33 34 35 36 37 38 39 40 41 42 43 44 45 46 47 48 49 50
000
ASUS44 KFWD 021903
RWRTX
NORTH TEXAS HOURLY WEATHER ROUNDUP
NATIONAL WEATHER SERVICE FORT WORTH TX
100 PM CST FRI DEC 02 2016

NOTE: "FAIR" INDICATES FEW OR NO CLOUDS BELOW 12,000 FEET WITH NO
SIGNIFICANT WEATHER AND/OR OBSTRUCTIONS TO VISIBILITY.

TXZ118-119-022000-
DALLAS/FORT WORTH METROPLEX

CITY           SKY/WX    TMP DP  RH WIND       PRES   REMARKS
DFW AIRPORT    CLOUDY    64  38  38 E6        30.10F
DALLAS LOVE    PTSUNNY   63  38  39 SE9       30.11F
FTW MEACHAM    CLOUDY    63  39  41 E7        30.10F
DAL-EXECUTIVE  MOSUNNY   62  40  44 SE8       30.10F
FTW-ALLIANCE   CLOUDY    63  38  39 E6        30.11F
FTW-NAS-JRB    PTSUNNY   64  41  42 NE6       30.11F
ARLINGTON      PTSUNNY   61  41  47 MISG      30.11F
ADDISON        PTSUNNY   64  36  34 E9        30.11F
MESQUITE       SUNNY     63  34  34 E6        30.12F
LANCASTER      MOSUNNY   62  40  45 E5        30.12F
$$

TXZ091>094-102>105-117-120-121-131>134-022000-
NORTH CENTRAL TEXAS

CITY           SKY/WX    TMP DP  RH WIND       PRES   REMARKS
SHRMAN/DENISON CLOUDY    64  35  34 E9        30.14F
GAINESVILLE    MOSUNNY   61  40  45 SE5       30.14F
BOWIE          CLOUDY    65  45  49 CALM      30.11F
BRIDGEPORT     PTSUNNY   63  46  53 E5        30.12F
DECATUR        MOSUNNY   62  39  42 E6        30.12S
DENTON         MOSUNNY   62  39  42 E7        30.11F
MCKINNEY       CLOUDY    62  34  35 SE7       30.11F
BONHAM         PTSUNNY   63  32  31 E8        30.16S
GREENVILLE     CLOUDY    64  30  27 E8        30.13F
ROCKWALL       PTSUNNY   64  35  33 SE6G16    30.12F
TERRELL        CLOUDY    64  32  30 E8        30.12F
WAXAHACHIE     MOSUNNY   62  43  49 E6        30.11F
CLEBURNE       MOSUNNY   64  41  42 E8        30.09F
GRANBURY       PTSUNNY   64  44  47 E6        30.09F
$$

TXZ083>090-098>101-113>116-127>130-139>142-154-155-022000-
WESTERN NORTH TEXAS

CITY           SKY/WX    TMP DP  RH WIND       PRES   REMARKS
WICHITA FALLS  CLOUDY    55  43  63 NE8       30.12F
WF-KICKAPOO    CLOUDY    57  46  67 NE5       30.12F
VERNON         CLOUDY    53  33  47 N8        30.12F
ABILENE        CLOUDY    59  52  77 SE17      30.03F
ABILENE-DYESS  CLOUDY    63  53  69 E12       30.01F HAZE
CISCO          CLOUDY    59  50  72 SE14      30.05F
BRECKENRIDGE   CLOUDY    65  50  58 SE10      30.05F
GRAHAM         PTSUNNY   63  49  61 E5        30.07F
MINERAL WELLS  PTSUNNY   62  44  51 SE10      30.08F
STEPHENVILLE   CLOUDY    63  49  60 E5        30.09F
COMANCHE       PTSUNNY   60  50  69 E7        30.06F
COLEMAN        CLOUDY    61  51  69 E9        30.03F
$$

TXZ143>147-156>162-174-175-022000-
CENTRAL TEXAS

CITY           SKY/WX    TMP DP  RH WIND       PRES   REMARKS
WACO           PTSUNNY   66  48  52 E9        30.06F
WACO-TSTC        N/A     66  45  45 E7        30.07F
WACO-MCGREGOR  PTSUNNY   64  49  57 NE12      30.05F
HILLSBORO      PTSUNNY   64  46  50 E9        30.09F
CORSICANA      PTSUNNY   64  43  46 E10       30.11F
MEXIA          MOSUNNY   63  39  41 E12G20    30.08F
HEARNE         MOSUNNY   66  47  51 E10       30.07F
CAMERON        HAZE      67  49  53 E14       30.03F VSB 1/2
TEMPLE         MOSUNNY   64  50  60 E15       30.05F
KILLEEN        CLOUDY    61  49  65 E9        30.03F
KILLEEN-SKYLRK CLOUDY    62  49  62 E10       30.05F
FORT HOOD      PTSUNNY   62  49  63 E9        30.02F
GATESVILLE     PTSUNNY   64  48  55 SE7       30.07S
HAMILTON       MOSUNNY   64  50  60 E7        30.05F
$$

TXZ095>097-106>112-122>126-135>138-148>153-164>167-022000-
EAST TEXAS

CITY           SKY/WX    TMP DP  RH WIND       PRES   REMARKS
PARIS          MOSUNNY   59  34  38 E9        30.19S
SULPHUR SPRNGS CLOUDY    62  32  32 E7        30.17F
MOUNT PLEASANT CLOUDY    61  34  35 SE7       30.18F
GILMER         PTSUNNY   58  37  44 E6        30.16F THUNDER
MINEOLA        CLOUDY    63  37  39 SE5       30.15F
TYLER          CLOUDY    61  38  42 E8        30.15S
LONGVIEW       CLOUDY    61  38  42 E6        30.15F
MARSHALL       CLOUDY    58  32  37 E6        30.17F
ATHENS         CLOUDY    63  36  36 E7        30.12S
PALESTINE      MOSUNNY   62  39  42 E9        30.13F
JACKSONVILLE   MOSUNNY   63  38  39 E7        30.15S
HENDERSON      MOSUNNY   62  35  35 E6        30.16F
CENTER         PTCLDY    64  36  35 SE8       30.16F
NACOGDOCHES    MOSUNNY   64  36  34 SE7       30.12S
LUFKIN         PTSUNNY   63  36  36 NE9       30.11F
$$

SUPPLEMENTAL OBSERVATIONS (CENTRAL)

CITY           SKY/WX    TMP DP  RH WIND       PRES   REMARKS
$$

SUPPLEMENTAL OBSERVATIONS (WEST)

CITY           SKY/WX    TMP DP  RH WIND       PRES   REMARKS
$$

SUPPLEMENTAL OBSERVATIONS (EAST)

CITY           SKY/WX    TMP DP  RH WIND       PRES   REMARKS
$$

SUPPLEMENTAL OBSERVATIONS ARE A COLLECTION OF AUTOMATED INSTRUMENTS
THAT ARE MAINTAINED BY A VARIETY OF FEDERAL AND STATE AGENCIES.
CERTAIN ELEMENTS...SUCH AS HUMIDITY VALUES AND SUSTAINED WIND
SPEEDS...MAY BE APPROXIMATED.





USA.gov is the U.S. government's official web portal to all federal, state and local government web resources and services.